Other Public Products
Issued by NWS Charleston, SC

Current Version | Previous Version | Graphics & Text | Print | Product List | Glossary On
Versions: 1 2 3 4 5 6 7 8 9 10 11 12 13 14 15 16 17 18 19 20 21 22 23 24 25 26 27 28 29 30 31 32 33 34 35 36 37 38 39 40 41 42 43 44 45 46 47 48 49 50
578 FPUS82 KCHS 221125 OPUCHS TEST...KCHS/KSAV Gateway Observations...TEST National Weather Service Charleston SC 600 AM EST WED FEB 22 2017 NOTE: "fair" indicates few or no clouds below 12,000 feet with no significant weather and/or obstructions to visibility. SCZ050-WAZ558-NCZ071-TXZ119-213-PAZ071-DCZ001-FLZ074-172-MI076- NYZ176-178-MAZ016-IL014-TNZ027-NJZ106-GAZ044-MD014-221200- ...Gateway Observations for Charleston International... CITY SKY/WX TMP DP RH WIND PRES REMARKS Chas Airport LGT RAIN 62 58 86 E10 29.95F Seattle CLOUDY 39 34 82 CALM 30.17S Charlotte CLOUDY 52 50 93 N5 30.01S Dallas DFW CLEAR 51 41 68 CALM 29.89S Dallas Love CLEAR 49 45 86 CALM 29.91R Philladelphia CLOUDY 42 37 82 CALM 30.08R Wash National CLOUDY 47 41 80 CALM 30.05R Baltimore CLOUDY 43 39 86 SE3 30.04R Miami CLOUDY 68 66 93 SE8 29.80F Detroit CLOUDY 46 46 100 S3 29.89S FOG Newark CLOUDY 42 35 76 S6 30.06S Laguardia CLOUDY 45 35 68 S6 30.06R J F K CLOUDY 41 38 89 SW5 30.08S Boston Logan CLOUDY 39 33 79 SW9 30.03F WCI 33 Ft. Lauderdale CLOUDY 74 64 71 SE15 29.79F Chicago O`Hare FOG 56 54 93 SW10 29.82R VSB 3/4 Chicago Midway CLOUDY 56 53 90 S8 29.83R FOG Houston Bush CLEAR 56 47 71 NW6 29.90S Houston Hobby CLEAR 54 48 80 SW5 29.90R Nashville LGT RAIN 55 54 96 S3 29.90S FOG Atlanta LGT RAIN 61 60 97 E7 29.88S FOG $$ GAZ044-118-TXZ119-213-NCZ071-DCZ001-MDZ014-506-PAZ021-071-NJZ106- NYZ176-178-MAZ106-OHZ011-021-055-MIZ076-KYZ091-ILZ014-INZ047- MNZ060-221200- ...Gateway Observations for Savannah International... CITY SKY/WX TMP DP RH WIND PRES REMARKS Savannah Arpt CLOUDY 63 59 87 E13 29.91S Atlanta LGT RAIN 61 60 97 E7 29.88S FOG Charlotte CLOUDY 52 50 93 N5 30.01S Dallas DFW CLEAR 51 41 68 CALM 29.89S Houston Bush CLEAR 56 47 71 NW6 29.90S Wash National CLOUDY 47 41 80 CALM 30.05R Wash Dulles CLOUDY 45 38 76 CALM 30.02S Baltimore CLOUDY 43 39 86 SE3 30.04R Philadelphia CLOUDY 42 37 82 CALM 30.08R Newark CLOUDY 42 35 76 S6 30.06S Laguardia CLOUDY 45 35 68 S6 30.06R J F K CLOUDY 41 38 89 SW5 30.08S Boston CLOUDY 39 33 79 SW9 30.03F WCI 33 Pittsburg CLOUDY 52 45 77 S3 29.94R Akron CLOUDY 52 49 89 S7 29.93R Cleveland CLOUDY 57 49 74 S6 29.93R Cincinnati CLOUDY 56 55 97 S8 29.92R Columbus DRIZZLE 52 52 100 S5 29.94S Detroit CLOUDY 46 46 100 S3 29.89S FOG Chicago O`Hare FOG 56 54 93 SW10 29.82R VSB 3/4 Minneapolis PTCLDY 41 38 89 SE10 29.57F Indianapolis PTCLDY 54 52 93 S5 29.90R FOG $$

USA.gov is the U.S. government's official web portal to all federal, state and local government web resources and services.